{"data":{"norad_id":57765,"epoch":"2026-05-25T02:14:53.076768Z","epoch_age_seconds":66532,"freshness":"FRESH","line1":"1 57765U 23133J   26145.09366987 -.00000011  00000+0 -19132-4 0  9991","line2":"2 57765  81.0047  30.1222 0007004  75.3475 284.8458 13.85387084137821","mean_motion":13.85387084,"eccentricity":0.0007004,"inclination_deg":81.0047,"raan_deg":30.1222,"arg_perigee_deg":75.3475,"mean_anomaly_deg":284.8458,"bstar":-1.9132e-5,"rev_number":13782,"period_min":103.9420690889,"perigee_km":939.71236234558,"apogee_km":949.97039045524,"semimajor_km":7322.9783764004,"source":"CELESTRAK","updated_at":"2026-05-25T13:38:00.237553Z"}}